Location: *
(51.1248°S, 108.4023°W)
Time: 05:20:25
(UTC+00:00)

USA 281 - Pass Details

Date: 15 June 2021
Orbit: 1078 x 1081 km, 106.0° (Epoch: 18 July)

Event Time Altitude Azimuth Distance (km) Brightness Sun altitude
Rises 12:58:12 0° 155° (SSE) 3,916 6.3 -20.4°
Reaches altitude 10° 13:00:46 10° 159° (SSE) 2,955 5.6 -20.0°
Maximum altitude 13:07:13 56° 234° (SW) 1,290 3.3 -19.0°
Drops below altitude 10° 13:13:37 10° 309° (NW) 2,931 5.2 -18.0°
Sets 13:16:10 0° 313° (NW) 3,881 5.8 -17.7°
